Cut Bank, MT

6:38 AM MST on December 05, 2016 (GMT -0700)
Cut Bank Municipal

Weather History for KCTB - October, 2013

Change the Weather History Date:

Tuesday, October 8, 2013

  Actual Average Record
Temperature  
Mean Temperature 44 °F 46 °F  
Max Temperature 55 °F 59 °F 83 °F (1984)
Min Temperature 33 °F 33 °F 6 °F (1985)
Degree Days  
Heating Degree Days 21 19  
Month to date heating degree days 150 143  
Since 1 July heating degree days 445 680  
Cooling Degree Days 0 0  
Month to date cooling degree days 0 0  
Year to date cooling degree days 226 161  
Moisture  
Dew Point 28 °F    
Average Humidity 57    
Maximum Humidity 76    
Minimum Humidity 38    
Precipitation  
Precipitation 0.00 in 0.02 in 1.40 in (1923)
Month to date precipitation T 0.17  
Year to date precipitation 13.70 10.05  
Snow  
Snow 0.00 in - - ()
Snow Depth 0.00 in    
Sea Level Pressure  
Sea Level Pressure 29.79 in    
Wind  
Wind Speed 18 mph (West)    
Max Wind Speed 32 mph    
Max Gust Speed 38 mph    
Visibility 10 miles    
Events      
T = Trace of Precipitation, MM = Missing Value Source: NWS Daily Summary

Daily Weather History Graph

Daily Weather History Graph

Search for Another Location

Airport or City:

Trip Planner

Search our weather history database for the weather conditions in past years. The results will help you decide how hot, cold, wet, or windy it might be!

Date:

Astronomy

Oct. 08, 2013 Rise Set
Actual Time 7:39 AM MDT 6:53 PM MDT
Civil Twilight 7:08 AM MDT 7:24 PM MDT
Nautical Twilight 6:31 AM MDT 8:01 PM MDT
Astronomical Twilight 5:55 AM MDT 8:37 PM MDT
Moon 11:56 AM MDT (10/8) 9:14 PM MDT (10/8)
Length of Visible Light 12h 16m
Length of Day
11h 13m
Waxing Crescent, 16% of the Moon is Illuminated
Oct 8
Waxing Crescent
Oct 11
First Quarter
Oct 18
Full
Oct 26
Last Quarter
Nov 3
New

Hourly Weather History & Observations

Time (MDT) Temp. Windchill Dew Point Humidity Pressure Visibility Wind Dir Wind Speed Gust Speed Precip Events Conditions
12:56 AM 45.0 °F 37.6 °F 28.9 °F 53% 29.69 in 10.0 mi WSW 17.3 mph - N/A   Clear
1:56 AM 45.0 °F 36.4 °F 28.0 °F 52% 29.66 in 10.0 mi WSW 23.0 mph - N/A   Clear
2:56 AM 46.0 °F 37.6 °F 26.1 °F 46% 29.65 in 10.0 mi SW 24.2 mph 35.7 mph N/A   Clear
3:56 AM 44.1 °F 35.9 °F 25.0 °F 47% 29.68 in 10.0 mi WSW 19.6 mph - N/A   Clear
4:56 AM 42.1 °F 34.2 °F 25.0 °F 51% 29.69 in 10.0 mi WSW 16.1 mph - N/A   Clear
5:56 AM 43.0 °F 34.8 °F 24.1 °F 47% 29.70 in 10.0 mi WSW 18.4 mph 28.8 mph N/A   Clear
6:56 AM 42.1 °F 34.2 °F 25.0 °F 51% 29.72 in 10.0 mi WSW 16.1 mph - N/A   Clear
7:56 AM 42.1 °F 33.1 °F 27.0 °F 55% 29.73 in 10.0 mi WSW 20.7 mph - N/A   Clear
8:56 AM 45.0 °F 36.9 °F 28.0 °F 52% 29.71 in 10.0 mi WSW 20.7 mph - N/A   Clear
9:56 AM 46.9 °F - 28.9 °F 50% 29.71 in 10.0 mi West 26.5 mph 34.5 mph N/A   Clear
10:56 AM 48.9 °F - 28.9 °F 46% 29.72 in 10.0 mi West 29.9 mph 36.8 mph N/A   Clear
11:56 AM 50.0 °F - 27.0 °F 41% 29.73 in 10.0 mi WSW 23.0 mph - N/A   Clear
12:56 PM 52.0 °F - 27.0 °F 38% 29.74 in 10.0 mi WSW 20.7 mph 32.2 mph N/A   Partly Cloudy
1:56 PM 54.0 °F - 28.0 °F 37% 29.75 in 10.0 mi WSW 24.2 mph 33.4 mph N/A   Clear
2:56 PM 53.1 °F - 28.0 °F 38% 29.76 in 10.0 mi West 26.5 mph 31.1 mph N/A   Clear
3:56 PM 52.0 °F - 28.0 °F 40% 29.79 in 10.0 mi WSW 23.0 mph - N/A   Partly Cloudy
4:56 PM 52.0 °F - 27.0 °F 38% 29.82 in 10.0 mi West 13.8 mph 23.0 mph N/A   Scattered Clouds
5:56 PM 51.1 °F - 28.0 °F 41% 29.84 in 10.0 mi WSW 15.0 mph - N/A   Partly Cloudy
6:56 PM 46.0 °F 40.6 °F 30.0 °F 54% 29.89 in 10.0 mi West 11.5 mph - N/A   Clear
7:56 PM 42.1 °F 35.7 °F 28.9 °F 60% 29.94 in 10.0 mi West 11.5 mph - N/A   Clear
8:56 PM 39.0 °F 31.4 °F 28.0 °F 65% 29.97 in 10.0 mi WNW 12.7 mph - N/A   Clear
9:56 PM 35.1 °F 28.6 °F 28.0 °F 76% 29.99 in 10.0 mi WNW 8.1 mph - N/A   Clear
10:56 PM 35.1 °F 27.4 °F 28.0 °F 76% 30.02 in 10.0 mi NW 10.4 mph - N/A   Scattered Clouds
11:56 PM 37.9 °F 32.7 °F 30.9 °F 76% 30.04 in 10.0 mi NW 6.9 mph - N/A   Overcast